Location: Belfast
(54.5830°N, 5.9330°W)
Time: 18:20:00
(UTC+00:00)

ISS - Pass Details

Date: 11 November 2018
Orbit: 401 x 408 km, 51.6° (Epoch: 10 December)

Event Time Altitude Azimuth Distance (km) Brightness Sun altitude
Exits shadow 05:37:26 23° 196° (SSW) 907 -2.2 -18.5°
Drops below altitude 10° 05:39:49 10° 151° (SSE) 1,464 -0.6 -18.1°
Sets 05:42:08 0° 137° (SE) 2,324 0.8 -17.8°
